• In Latvia
  • List of Countries
  • For 7 days
  • Water Temperature
  • Satellite Maps
  • Weather Map
  • Weather Widgets
  • user-avatar
    Login

    Hourly Weather Quito

    Today, 11 December, Monday

    Time Temperature Precipitation Wind Pressure Humidity
    00:00 +18°C° 1 mm 1 mps 621 mmHg 97%
    01:00 +18°C° 0 mm 1 mps 621 mmHg 97%
    02:00 +18°C° 1 mm 1 mps 621 mmHg 98%
    03:00 +16°C° 1 mm 1 mps 621 mmHg 98%
    04:00 +16°C° 1 mm 1 mps 621 mmHg 98%
    05:00 +18°C° 0.6 mm 1 mps 621 mmHg 98%
    06:00 +18°C° 0.6 mm 1 mps 622 mmHg 97%
    07:00 +18°C° 0 mm 1 mps 622 mmHg 96%
    08:00 +19°C° 0.3 mm 1 mps 622 mmHg 94%
    09:00 +19°C° 0.3 mm 1 mps 622 mmHg 93%
    10:00 +20°C° 0.3 mm 1 mps 622 mmHg 91%
    11:00 +22°C° 0.3 mm 1 mps 622 mmHg 84%
    12:00 +23°C° 0.3 mm 2 mps 623 mmHg 77%
    13:00 +25°C° 0.3 mm 2 mps 623 mmHg 69%
    14:00 +25°C° 1.4 mm 1 mps 622 mmHg 73%
    15:00 +24°C° 1.4 mm 1 mps 621 mmHg 76%
    16:00 +24°C° 1.4 mm 1 mps 621 mmHg 79%
    17:00 +22°C° 1.9 mm 1 mps 620 mmHg 84%
    18:00 +21°C° 1.9 mm 1 mps 620 mmHg 88%
    19:00 +19°C° 1.9 mm 1 mps 620 mmHg 93%
    20:00 +19°C° 0.9 mm 1 mps 621 mmHg 93%
    21:00 +19°C° 0.9 mm 1 mps 621 mmHg 93%
    22:00 +18°C° 0.9 mm 1 mps 621 mmHg 93%
    23:00 +18°C° 0.3 mm 1 mps 621 mmHg 94%

    Tomorrow, 12 December, Tuesday

    Time Temperature Precipitation Wind Pressure Humidity
    00:00 +18°C° 0.3 mm 1 mps 621 mmHg 95%
    01:00 +16°C° 0.3 mm 1 mps 621 mmHg 96%
    02:00 +16°C° 0.4 mm 1 mps 620 mmHg 96%
    03:00 +16°C° 0.4 mm 1 mps 620 mmHg 97%
    04:00 +16°C° 0.4 mm 1 mps 620 mmHg 97%
    05:00 +18°C° 0.1 mm 1 mps 621 mmHg 96%
    06:00 +17°C° 0.1 mm 2 mps 621 mmHg 95%
    07:00 +18°C° 0.1 mm 2 mps 621 mmHg 94%
    08:00 +19°C° 0.8 mm 2 mps 622 mmHg 90%
    09:00 +20°C° 0.8 mm 2 mps 622 mmHg 86%
    10:00 +23°C° 0.8 mm 2 mps 623 mmHg 82%
    11:00 +23°C° 1.4 mm 2 mps 622 mmHg 81%
    12:00 +23°C° 1.4 mm 2 mps 622 mmHg 80%
    13:00 +24°C° 1.4 mm 2 mps 622 mmHg 79%
    14:00 +23°C° 2.5 mm 2 mps 621 mmHg 83%
    15:00 +21°C° 2.5 mm 2 mps 620 mmHg 87%
    16:00 +20°C° 2.5 mm 2 mps 620 mmHg 91%
    17:00 +19°C° 1.8 mm 2 mps 620 mmHg 92%
    18:00 +19°C° 1.8 mm 2 mps 621 mmHg 93%
    19:00 +18°C° 1.8 mm 2 mps 621 mmHg 93%
    20:00 +18°C° 0.6 mm 2 mps 621 mmHg 94%
    21:00 +17°C° 0.6 mm 3 mps 622 mmHg 94%
    22:00 +17°C° 0.6 mm 3 mps 622 mmHg 95%
    23:00 +17°C° 0.5 mm 3 mps 622 mmHg 95%

    Day after tomorrow, 13 December, Wednesday

    Time Temperature Precipitation Wind Pressure Humidity
    00:00 +17°C° 0.5 mm 3 mps 622 mmHg 95%
    01:00 +17°C° 0.5 mm 3 mps 621 mmHg 96%
    02:00 +17°C° 0.6 mm 2 mps 621 mmHg 96%
    03:00 +17°C° 0.6 mm 2 mps 621 mmHg 96%
    04:00 +17°C° 0.6 mm 2 mps 621 mmHg 97%
    05:00 +18°C° 1 mm 1 mps 621 mmHg 97%
    06:00 +18°C° 1 mm 1 mps 622 mmHg 97%
    07:00 +18°C° 1 mm 1 mps 622 mmHg 97%
    08:00 +19°C° 0.8 mm 1 mps 623 mmHg 95%
    09:00 +19°C° 0.8 mm 1 mps 623 mmHg 93%
    10:00 +19°C° 0.8 mm 2 mps 623 mmHg 92%
    11:00 +20°C° 1.4 mm 2 mps 623 mmHg 90%
    12:00 +20°C° 1.4 mm 2 mps 623 mmHg 88%
    13:00 +21°C° 1.4 mm 2 mps 623 mmHg 86%
    14:00 +20°C° 1 mm 2 mps 622 mmHg 87%
    15:00 +20°C° 1 mm 2 mps 622 mmHg 89%
    16:00 +20°C° 1 mm 2 mps 621 mmHg 90%
    17:00 +19°C° 0.4 mm 2 mps 622 mmHg 91%
    18:00 +19°C° 0.4 mm 1 mps 622 mmHg 93%
    19:00 +18°C° 0.4 mm 1 mps 622 mmHg 95%
    20:00 +18°C° 0.2 mm 1 mps 622 mmHg 95%
    21:00 +17°C° 0.2 mm 2 mps 623 mmHg 94%
    22:00 +17°C° 0.2 mm 2 mps 623 mmHg 94%
    23:00 +16°C° 0.2 mm 2 mps 623 mmHg 94%

    14 December, Thursday

    Time Temperature Precipitation Wind Pressure Humidity
    00:00 +16°C° 0.2 mm 2 mps 622 mmHg 94%
    01:00 +16°C° 0.2 mm 2 mps 622 mmHg 94%
    02:00 +16°C° 0.1 mm 2 mps 622 mmHg 94%
    03:00 +16°C° 0.1 mm 2 mps 621 mmHg 94%
    04:00 +16°C° 0.1 mm 2 mps 621 mmHg 93%
    05:00 +16°C° 0.1 mm 2 mps 622 mmHg 93%
    06:00 +18°C° 0.1 mm 1 mps 622 mmHg 92%
    07:00 +18°C° 0.1 mm 1 mps 623 mmHg 91%
    08:00 +19°C° 0.2 mm 2 mps 623 mmHg 83%
    09:00 +21°C° 0.2 mm 2 mps 624 mmHg 75%
    10:00 +24°C° 0.2 mm 3 mps 625 mmHg 67%
    11:00 +25°C° 0.3 mm 2 mps 624 mmHg 64%
    12:00 +26°C° 0.3 mm 2 mps 624 mmHg 61%
    13:00 +26°C° 0.3 mm 2 mps 623 mmHg 58%
    14:00 +26°C° 0.4 mm 2 mps 623 mmHg 61%
    15:00 +26°C° 0.4 mm 1 mps 622 mmHg 64%
    16:00 +26°C° 0.4 mm 1 mps 622 mmHg 67%
    17:00 +24°C° 0.1 mm 1 mps 622 mmHg 71%
    18:00 +22°C° 0.1 mm 1 mps 622 mmHg 76%
    19:00 +20°C° 0.1 mm 1 mps 622 mmHg 81%
    20:00 +20°C° 0 mm 1 mps 622 mmHg 83%
    21:00 +19°C° 0 mm 1 mps 622 mmHg 84%
    22:00 +19°C° 0 mm 1 mps 622 mmHg 86%
    23:00 +18°C° 0 mm 1 mps 621 mmHg 88%

    15 December, Friday

    Time Temperature Precipitation Wind Pressure Humidity
    00:00 +18°C° 0 mm 1 mps 621 mmHg 89%
    01:00 +16°C° 0 mm 1 mps 620 mmHg 91%
    02:00 +16°C° 0 mm 1 mps 620 mmHg 92%
    03:00 +16°C° 0 mm 1 mps 620 mmHg 93%
    04:00 +16°C° 0 mm 1 mps 620 mmHg 94%
    05:00 +18°C° 0 mm 1 mps 621 mmHg 91%
    06:00 +19°C° 0 mm 1 mps 622 mmHg 88%
    07:00 +20°C° 0 mm 1 mps 623 mmHg 85%
    08:00 +22°C° 0 mm 1 mps 624 mmHg 75%
    09:00 +24°C° 0 mm 2 mps 624 mmHg 65%
    10:00 +26°C° 0 mm 2 mps 625 mmHg 55%
    11:00 +27°C° 0 mm 2 mps 624 mmHg 51%
    12:00 +28°C° 0 mm 2 mps 624 mmHg 48%
    13:00 +29°C° 0 mm 2 mps 623 mmHg 44%
    14:00 +28°C° 0 mm 2 mps 623 mmHg 48%
    15:00 +28°C° 0 mm 2 mps 623 mmHg 52%
    16:00 +28°C° 0 mm 2 mps 622 mmHg 56%
    17:00 +25°C° 0.1 mm 2 mps 622 mmHg 63%
    18:00 +23°C° 0.1 mm 2 mps 622 mmHg 70%
    19:00 +19°C° 0.1 mm 2 mps 621 mmHg 77%
    20:00 +19°C° 0.1 mm 2 mps 621 mmHg 80%
    21:00 +18°C° 0.1 mm 2 mps 621 mmHg 83%
    22:00 +18°C° 0.1 mm 2 mps 622 mmHg 86%
    23:00 +18°C° 0 mm 2 mps 621 mmHg 88%

    16 December, Saturday

    Time Temperature Precipitation Wind Pressure Humidity
    00:00 +17°C° 0 mm 2 mps 621 mmHg 89%
    01:00 +17°C° 0 mm 2 mps 621 mmHg 91%
    02:00 +17°C° 0.4 mm 2 mps 621 mmHg 92%
    03:00 +16°C° 0.4 mm 1 mps 621 mmHg 94%
    04:00 +16°C° 0.4 mm 1 mps 621 mmHg 95%
    05:00 +18°C° 0.4 mm 1 mps 621 mmHg 94%
    06:00 +19°C° 0.4 mm 1 mps 622 mmHg 92%
    07:00 +19°C° 0.4 mm 1 mps 622 mmHg 91%
    08:00 +21°C° 0.1 mm 1 mps 623 mmHg 82%
    09:00 +23°C° 0.1 mm 1 mps 623 mmHg 73%
    10:00 +25°C° 0.1 mm 1 mps 624 mmHg 63%
    11:00 +25°C° 0.5 mm 1 mps 623 mmHg 64%
    12:00 +25°C° 0.5 mm 1 mps 623 mmHg 65%
    13:00 +25°C° 0.5 mm 1 mps 622 mmHg 66%
    14:00 +24°C° 0.9 mm 1 mps 622 mmHg 70%
    15:00 +24°C° 0.9 mm 1 mps 622 mmHg 74%
    16:00 +23°C° 0.9 mm 1 mps 621 mmHg 78%
    17:00 +22°C° 0.5 mm 1 mps 621 mmHg 82%
    18:00 +20°C° 0.5 mm 1 mps 621 mmHg 86%
    19:00 +19°C° 0.5 mm 1 mps 621 mmHg 91%
    20:00 +19°C° 0.3 mm 1 mps 622 mmHg 92%
    21:00 +18°C° 0.3 mm 1 mps 622 mmHg 94%
    22:00 +18°C° 0.3 mm 1 mps 622 mmHg 95%
    23:00 +18°C° 0.1 mm 1 mps 622 mmHg 95%
    Show more